Starlink 4643

operational
NORAD ID: 54824 Int'l Des: 2022-177 Owner: SPXS Country: US Constellation: starlink
LEOCIRCULAR

关于 Starlink 4643

正在加载描述...

实时位置

正在加载3D地球...

即将过境

高度历史

Altitude vs Time

uPlot chart will show altitude changes over time

两行轨道根数

1 54824U 22177E 25302.53216094 -.00000038 00000-0 12252-4 0 9992
2 54824 43.0042 126.1936 0001323 272.8881 87.1810 15.02534948157224
Epoch: Oct 29, 2025 • Age: 14 hours

当前状态

高度 558.9 km
速度 7.59 km/s
星下点 20.68°N, 58.92°E
发射日期 Dec 28, 2022
运行时间 2.8 years
类型 internet

技术详情

分类 Payload
质量 305.00 kg
干质量 290.00 kg
总质量 305.00 kg
长度 0.20 m
直径 2.80 m
跨度 9.00 m
形状 Box + pan
制造商 SPXS
平台类型 Starlink
阶段状态 In Orbit
所有者/国家 SPXS/US

大型星座

Loading constellations...